DW6598 Weather Reports


time (UTC)temp
C
wind
direction
speed
KPH
gust
KPH
rain 1hr
cm
rain 24hr
cm
rain mn
cm
humidity
%
barometer
mb
20260504044541 8 129 0.0 1.6 0.00 0.33 0.00 63 1014.0
20260504043038 8 129 0.0 1.6 0.00 0.33 0.00 63 1014.1
20260504041535 7 134 0.0 1.6 0.00 0.33 0.00 64 1014.1
20260504040057 7 134 0.0 3.2 0.00 0.33 0.00 65 1014.1
20260504034534 7 129 0.0 1.6 0.00 0.33 0.33 64 1014.1
20260504033035 8 79 0.0 1.6 0.00 0.33 0.33 61 1014.0
20260504031535 8 79 0.0 1.6 0.00 0.33 0.33 61 1014.1
20260504030031 8 105 0.0 0.0 0.00 0.33 0.33 61 1014.1
20260504024530 8 105 0.0 0.0 0.00 0.33 0.33 60 1014.3
20260504023030 9 105 0.0 0.0 0.00 0.33 0.33 58 1014.4
20260504021530 10 106 0.0 0.0 0.00 0.33 0.33 57 1014.4
20260504020028 10 105 0.0 1.6 0.00 0.33 0.33 57 1014.4
20260504014528 10 105 0.0 1.6 0.00 0.33 0.33 57 1014.5
20260504013027 10 105 0.0 1.6 0.00 0.33 0.33 57 1014.3
20260504011527 10 105 0.0 1.6 0.30 0.33 0.33 57 1014.2
20260504010028 11 139 0.0 3.2 0.30 0.33 0.33 53 1014.2
20260504004538 11 138 0.0 1.6 0.30 0.33 0.33 52 1014.2
20260504003025 11 142 0.0 3.2 0.30 0.33 0.33 51 1014.2
20260504001524 11 134 0.0 3.2 0.00 0.03 0.03 50 1014.2
20260504000024 12 131 0.0 3.2 0.00 0.03 0.03 49 1014.1
20260503234523 12 146 1.6 6.4 0.00 0.03 0.03 48 1014.2
20260503233022 12 135 1.6 6.4 0.00 0.03 0.03 48 1014.4
20260503231520 13 134 1.6 12.9 0.00 0.03 0.03 46 1014.3
20260503230019 13 125 3.2 9.7 0.00 0.03 0.03 47 1014.4
20260503224516 13 113 3.2 16.1 0.00 0.03 0.03 45 1014.4
20260503223015 13 155 4.8 16.1 0.00 0.03 0.03 45 1014.5
20260503221514 13 108 1.6 12.9 0.00 0.03 0.03 48 1014.6
20260503220014 13 135 6.4 17.7 0.00 0.03 0.03 45 1014.7
20260503214513 13 118 8.0 17.7 0.00 0.03 0.03 43 1014.6
20260503213017 14 101 3.2 12.9 0.00 0.03 0.03 44 1014.4
20260503211511 13 131 4.8 16.1 0.00 0.03 0.03 44 1014.5
20260503210009 13 141 4.8 12.9 0.00 0.03 0.03 45 1014.6
20260503204507 14 142 4.8 20.9 0.00 0.03 0.03 45 1014.9
20260503203008 14 141 1.6 11.3 0.00 0.03 0.03 49 1015.0
20260503201503 13 156 6.4 12.9 0.00 0.03 0.03 48 1015.2
20260503200002 13 166 1.6 12.9 0.00 0.03 0.03 48 1015.4
20260503194559 13 125 4.8 19.3 0.00 0.03 0.03 46 1015.5
20260503193111 13 117 6.4 12.9 0.00 0.03 0.03 45 1015.7
20260503191604 13 136 9.7 24.1 0.00 0.03 0.03 46 1015.8
20260503190052 12 124 3.2 14.5 0.00 0.03 0.03 48 1016.2
20260503184549 12 129 3.2 20.9 0.00 0.03 0.03 51 1016.5
20260503183106 12 128 4.8 17.7 0.00 0.03 0.03 46 1016.6
20260503181614 12 153 9.7 19.3 0.00 0.03 0.03 47 1016.8
20260503180045 12 129 3.2 17.7 0.00 0.03 0.03 50 1017.0
20260503174543 12 123 6.4 24.1 0.00 0.03 0.03 48 1017.1
20260503173047 13 96 6.4 14.5 0.00 0.03 0.03 47 1017.3
20260503171539 12 95 3.2 19.3 0.00 0.03 0.03 48 1017.4
20260503090115 1 141 0.0 0.0 0.00 0.00 0.00 89 1017.4
20260503081558 1 141 0.0 0.0 0.00 0.00 0.00 88 1017.3
20260503080106 1 141 0.0 0.0 0.00 0.00 0.00 88 1017.4
20260503071605 1 144 0.0 0.0 0.00 0.00 0.00 88 1017.0
20260503070112 1 144 0.0 0.0 0.00 0.00 0.00 88 1017.0
20260503060113 1 143 0.0 0.0 0.00 0.00 0.00 85 1017.2
20260503054548 1 143 0.0 0.0 0.00 0.00 0.00 85 1017.2
20260503053049 1 143 0.0 11.3 0.00 0.00 0.00 85 1017.2
20260503051547 1 158 0.0 14.5 0.00 0.00 0.00 85 1017.3
20260503050045 1 150 0.0 3.2 0.00 0.00 0.00 84 1017.4